World > North America > United States > Nevada

Salt Wells, Nevada Regional Weather

Lat: 39.38N, Lon: 118.58W
Wx Zone: NVZ004
Feedback

Salt Wells, NV Regional Weather

Expires:201910240500;;179934
ASUS45 KREV 240410
RWRNV 
NEVADA REGIONAL WEATHER ROUNDUP
NATIONAL WEATHER SERVICE RENO NV
900 PM PDT WED OCT 23 2019

NOTE: "FAIR" INDICATES FEW OR NO CLOUDS BELOW 12,000 FEET WITH NO
SIGNIFICANT WEATHER AND/OR OBSTRUCTIONS TO VISIBILITY.


NVZ001-003-004-240500-
WESTERN NEVADA
  
CITY           SKY/WX    TMP DP  RH WIND       PRES   REMARKS
RENO           CLEAR     49  14  24 S5        30.32R                  
CARSON CITY    FAIR      46  12  25 CALM      30.31R                  
SLIDE MTN        N/A     37  18  44 E37         N/A                   
PYRAMID LAKE     N/A     57 N/A N/A W6          N/A                   
FALLON         CLEAR     50  16  25 N10       30.29R                  
LOVELOCK       CLEAR     45  14  28 SE3       30.31R                  
HAWTHORNE      CLEAR     54  28  37 CALM      30.29R                  
$$


SKY/WX - Weather  TMP - Temperature  DP - Dew Point  RH - Relative Humidity
WIND - Wind Direction/Speed PRES - Barometric Pressure VSB - Visibility
WCI - Wind Chill Index E13G22 Wind - East Wind 13 mph/Gusts of 22 mph